Wind_Gust
7 6 5 4 7 5 8 7 5 2 2 3 4 3 4 9 7 14 5 6 6 4 4 6 7 6 3 2 3 4 2 3 3 4 5 5 4 2 3 4 4 5 6 7 6 4 3 3 8 9 13 7 5 5 6 6 6 7 7 8 7 7 7 7 6 7 8 6 6 10 9 7 7 8 8 6 5 5 5 5 6 6 6 6 5 3 3
8 9 7 4 13 5 7 7 4 1 5 4 5 5 2 2 3 7 11 10 5 4 5 8 9 7 5 2 3 8 11 6 4 3 3 6 6 6 5 3 1 1 1 2 4 6 7 6 5 5 6 11 11 6 6 6 7 5 6 6 7 6 6 6 5 8 7 5 7 7 7 7 8 9 10 11 11 7 5 4 5 5 4 4 4 5 6
4 6 6 6 6 9 8 2 4 1 4 7 5 5 2 4 5 3 5 13 5 4 3 5 5 4 3 15 16 9 6 8 5 5 3 3 4 5 6 6 7 7 7 7 6 7 7 8 9 10 10 10 9 9 5 5 5 5 6 8 7 9 8 6 7 6 6 8 9 8 7 8 6 4 7 8 6 3 2 4 5 4 2 6 7 6 6
3 3 6 4 8 11 9 3 5 5 4 6 4 6 3 3 6 3 3 8 6 3 9 5 9 14 18 13 10 12 11 9 6 7 5 6 7 9 9 8 9 9 9 8 9 8 9 9 9 10 10 10 7 8 4 5 5 5 6 8 8 6 4 4 5 6 6 6 6 5 5 3 1 2 3 5 5 4 4 5 6 5 6 8 7 6 5
7 3 2 3 5 8 5 3 2 2 4 8 8 5 6 3 3 8 10 7 3 4 5 12 12 14 15 17 12 9 11 10 9 8 8 8 8 9 10 11 10 10 9 8 8 9 10 12 11 10 8 9 10 9 5 3 4 8 8 7 7 6 5 7 6 6 5 6 6 5 4 3 3 4 5 5 5 3 7 8 5 4 7 6 8 7 6
6 2 4 3 6 6 14 7 4 3 6 9 12 5 4 7 3 5 5 5 2 5 9 15 11 17 14 11 7 5 6 9 10 12 11 10 7 10 13 12 11 8 9 9 11 9 9 8 8 6 10 9 8 9 9 7 9 8 9 7 8 6 7 6 6 6 7 9 9 8 8 8 9 9 9 8 7 6 7 7 8 7 6 5 7 6 5
9 3 4 6 10 20 6 9 4 4 6 13 21 8 5 6 8 7 9 9 9 7 8 12 13 12 9 11 16 17 13 9 11 11 11 10 9 10 11 14 12 10 9 7 11 13 12 9 8 13 15 12 10 13 13 11 10 9 9 10 9 7 8 7 6 6 7 6 7 6 6 7 8 8 8 7 7 5 7 6 7 9 7 5 4 5 5
8 8 8 14 16 5 4 8 2 3 3 3 10 14 9 8 5 1 6 2 2 2 3 2 3 5 5 14 18 16 15 13 12 13 11 9 8 8 6 8 7 8 8 10 11 9 7 9 10 11 11 11 14 13 10 12 11 11 9 10 7 7 8 6 6 5 7 6 5 5 6 6 7 7 5 5 6 4 7 8 8 9 9 8 6 6 6
14 9 6 8 4 5 3 3 4 7 4 5 5 9 2 4 4 3 5 4 4 3 2 2 3 4 5 19 18 15 14 14 12 12 12 10 11 8 8 6 5 2 2 7 5 6 6 8 10 8 7 7 7 7 12 12 13 14 14 12 11 7 6 5 6 6 7 8 7 7 7 8 8 7 8 6 5 4 10 7 8 8 7 5 3 4 3
12 13 7 7 7 12 13 7 4 1 2 2 5 10 3 3 4 2 4 4 2 3 2 4 4 3 15 17 11 12 14 11 12 12 12 12 12 12 12 14 14 14 10 9 10 8 7 7 3 6 6 7 6 5 4 5 8 9 11 10 10 11 9 6 2 2 4 8 8 7 7 9 8 6 6 5 6 5 11 9 8 5 6 8 6 4 4
8 7 15 17 18 19 9 4 7 6 4 2 5 8 6 4 1 1 4 8 4 5 5 6 2 7 8 2 2 9 9 11 9 9 9 9 8 8 9 10 12 12 12 9 9 12 11 10 12 10 6 8 10 9 3 3 3 6 9 14 11 13 10 7 5 2 1 4 6 6 7 5 6 7 6 7 6 7 8 9 8 6 5 9 6 6 4
7 11 11 11 14 12 2 6 7 8 2 5 9 10 16 6 3 2 3 8 6 6 5 7 15 11 10 3 3 5 6 4 4 7 10 11 10 9 8 9 6 5 8 13 14 12 10 10 11 13 8 5 6 5 9 8 4 4 10 14 13 14 12 8 6 5 5 5 6 7 7 6 5 8 9 8 7 8 6 8 10 7 6 7 8 5 5
5 9 7 7 8 6 3 5 9 11 4 7 12 19 9 2 3 3 4 6 5 6 11 10 11 6 2 2 3 4 4 5 8 6 4 4 4 6 7 7 6 7 7 7 5 5 5 8 11 11 12 10 9 10 7 7 10 10 12 11 9 5 5 6 6 7 5 6 9 6 8 10 9 8 7 10 8 8 9 7 9 8 8 6 8 5 5
4 3 10 10 5 5 6 5 6 6 6 11 11 6 3 3 3 2 4 8 3 6 6 10 7 6 4 5 2 3 3 3 3 5 6 7 8 5 4 4 7 7 7 6 4 5 5 5 7 6 3 3 6 5 4 8 13 12 5 7 7 5 6 7 8 8 8 6 6 10 6 8 8 6 3 5 8 9 9 9 9 8 5 6 7 5 4
5 6 7 6 11 6 10 7 5 9 10 5 4 3 5 4 3 4 5 4 1 3 5 2 3 2 2 3 2 2 3 1 2 3 7 8 7 9 8 10 9 9 10 9 9 7 6 4 4 6 4 5 7 7 7 13 12 8 7 6 8 8 7 8 8 9 8 8 9 7 9 8 10 9 7 8 6 8 10 8 8 7 5 5 6 5 4
6 5 10 11 3 6 8 4 9 3 4 9 6 5 3 2 3 4 3 1 3 3 6 4 3 4 3 4 2 5 3 2 2 1 2 5 6 7 6 4 7 6 7 8 11 10 11 9 4 5 4 7 6 5 12 13 9 8 8 9 7 7 7 8 8 8 8 8 7 8 10 10 8 11 8 7 7 8 9 11 10 8 6 6 6 6 6
5 6 7 5 3 4 8 9 10 5 2 3 4 7 4 4 2 1 1 1 3 6 4 3 2 2 3 3 5 5 7 8 8 7 5 3 5 5 6 9 8 5 5 8 8 9 10 10 9 5 2 4 7 7 9 6 8 9 9 7 8 10 10 9 10 9 8 8 8 7 7 10 10 9 6 7 8 4 8 8 9 10 9 8 9 9 7
6 10 6 6 3 1 3 4 3 6 3 1 3 8 6 5 5 3 2 2 2 2 1 3 3 2 2 2 5 4 5 6 8 6 6 5 3 3 5 6 7 6 7 6 7 8 11 8 8 7 6 2 7 12 10 10 9 8 7 6 7 11 11 10 10 8 8 7 6 7 6 8 10 13 14 12 10 10 8 9 9 11 11 10 8 8 9
10 5 2 4 5 1 1 1 2 2 1 1 2 3 2 1 1 1 2 1 1 1 1 1 2 5 4 3 6 5 5 7 7 6 6 6 5 4 5 6 6 7 6 8 8 7 8 9 11 10 8 8 8 10 12 12 10 8 7 6 7 6 7 7 6 8 10 10 10 8 7 8 5 7 6 9 9 9 10 10 8 6 7 9 9 8 9
8 8 6 4 1 1 2 2 2 4 3 4 3 2 1 1 1 1 2 1 2 2 2 3 3 6 5 4 8 6 6 7 7 9 9 9 9 8 6 6 6 6 6 7 8 7 9 11 9 10 11 12 11 10 11 11 10 10 9 7 8 8 6 4 4 3 5 6 9 8 9 10 9 6 6 9 11 13 14 13 11 10 10 9 11 12 11
2 4 3 1 1 1 2 3 3 4 2 1 2 4 4 4 3 4 5 2 4 2 5 2 3 5 8 5 5 5 6 6 6 7 7 7 7 8 10 9 7 8 7 9 9 9 10 8 8 9 10 12 12 12 11 11 10 10 12 10 8 8 7 3 7 7 9 8 10 11 10 8 6 3 8 11 12 9 4 3 10 15 15 12 12 12 11
3 7 5 6 4 5 6 5 6 4 5 3 1 2 2 2 3 4 4 8 3 4 5 4 4 5 6 5 4 4 5 5 5 5 6 6 6 7 6 7 7 8 7 8 9 9 9 7 7 8 9 10 11 11 10 11 9 10 12 12 10 12 10 7 9 7 9 10 9 9 9 10 8 3 3 2 3 5 4 1 3 3 6 13 12 12 11
6 10 7 5 5 3 9 6 3 4 3 2 1 2 3 5 4 5 4 6 9 5 5 4 4 3 2 4 3 3 5 6 5 6 7 9 9 9 8 8 9 8 10 10 10 11 11 8 7 8 9 10 11 12 11 11 10 11 10 13 13 13 11 10 12 11 10 10 10 9 7 6 5 7 3 2 3 3 2 5 4 6 7 9 6 10 13
3 5 7 9 7 5 3 2 5 5 3 4 5 5 5 6 6 5 5 4 5 2 1 3 2 2 2 2 2 6 7 6 6 9 8 8 8 9 8 7 10 11 12 11 11 12 10 9 9 8 9 11 10 11 9 10 10 10 10 10 13 13 13 12 11 9 9 8 7 8 7 6 7 8 8 7 6 4 5 4 3 7 10 11 11 11 13
2 5 6 8 7 5 3 2 2 2 2 2 3 5 4 6 6 3 5 4 2 6 3 1 2 1 2 4 4 6 7 8 8 10 11 11 10 10 11 10 11 11 13 12 13 12 11 11 10 9 9 11 10 9 9 9 10 11 12 10 12 13 13 12 10 7 7 8 9 9 9 8 7 7 9 9 10 11 7 7 8 6 5 9 11 13 13
2 3 3 3 1 2 4 1 2 3 4 1 2 3 4 4 4 5 5 6 4 4 3 2 1 2 2 4 5 6 7 9 10 11 11 12 12 11 12 12 13 13 13 13 14 13 12 11 11 10 10 10 10 10 8 9 10 11 12 12 11 12 10 10 9 9 10 9 8 9 8 7 8 8 8 8 9 8 8 9 8 7 8 7 6 12 12
2 3 4 2 3 4 3 2 5 2 4 2 2 1 1 2 5 5 3 3 3 3 2 4 4 3 4 3 5 6 7 10 11 13 11 13 14 13 13 13 13 13 14 15 15 14 15 15 14 13 14 11 10 9 8 9 10 12 11 11 11 9 9 7 10 11 9 7 7 6 6 7 7 7 9 8 8 8 10 10 10 7 4 8 6 5 8
1 1 1 3 7 4 2 1 2 2 1 2 1 3 1 2 3 3 2 2 2 1 2 3 4 4 6 5 5 10 9 10 12 14 17 16 15 14 14 13 13 14 16 16 16 15 15 15 14 15 16 12 11 11 9 8 9 11 10 9 9 9 6 8 9 7 8 7 6 6 7 8 8 8 7 8 8 9 8 6 7 7 5 4 5 6 12
2 2 1 1 2 3 2 1 2 4 2 2 1 1 2 2 1 1 1 2 2 3 6 6 2 2 3 6 4 7 9 12 14 17 19 16 15 15 14 13 14 15 17 17 17 16 16 15 15 16 16 11 9 9 9 8 7 9 10 9 10 5 5 8 8 7 4 4 4 4 4 4 6 6 6 6 6 7 7 8 8 7 8 9 12 13 11
3 1 1 2 3 3 2 1 1 3 2 1 1 1 1 2 1 1 3 4 3 6 7 5 6 6 3 5 6 6 10 12 15 16 17 15 16 14 14 15 19 19 19 20 19 16 15 17 17 18 16 10 10 10 9 8 9 7 9 10 8 6 7 4 5 5 5 5 5 5 5 5 4 6 6 7 8 9 9 9 10 11 9 7 7 12 15
1 2 4 2 2 2 2 2 2 2 1 1 3 5 2 1 1 2 5 5 5 6 6 6 6 8 8 8 8 8 9 10 14 18 19 18 15 14 14 15 17 18 21 21 21 18 19 20 20 19 16 11 9 10 9 9 8 8 9 8 6 5 7 8 5 7 7 7 7 7 5 5 6 7 7 7 8 8 9 10 10 10 9 9 11 11 11
2 2 5 2 1 2 3 2 3 1 2 1 2 3 5 2 3 5 5 6 7 6 7 9 9 11 11 9 8 8 9 11 12 13 15 15 15 14 14 15 18 18 22 23 21 19 19 19 21 20 14 12 10 8 7 6 6 9 9 5 5 5 7 8 7 7 7 7 7 7 8 8 6 7 7 8 9 9 10 12 11 11 11 11 10 9 8
3 4 6 4 3 2 3 2 1 1 2 4 6 3 2 2 1 3 5 5 7 8 7 10 11 11 9 9 8 8 9 11 12 13 13 14 14 15 14 15 16 18 19 19 19 19 18 19 21 16 13 11 9 8 7 7 8 8 6 7 7 7 6 6 7 9 7 7 7 7 7 8 8 9 9 9 9 9 10 12 12 12 12 11 10 7 6
7 6 7 6 7 6 4 5 4 1 3 4 2 3 2 2 2 4 5 5 6 9 11 12 11 8 8 8 7 7 9 11 14 14 14 16 16 16 15 17 17 17 19 18 17 17 16 17 17 15 12 11 10 8 7 7 8 8 9 9 9 9 8 7 8 8 9 7 7 7 8 9 10 10 9 10 10 9 10 11 11 12 13 11 8 6 5
3 4 3 4 3 2 2 3 3 3 4 4 2 3 2 2 3 6 6 6 8 9 10 10 9 7 8 6 4 6 8 10 12 14 15 16 17 17 17 17 17 17 17 15 12 12 13 14 13 11 10 9 8 7 7 8 8 9 8 10 10 10 9 9 8 7 8 7 6 9 9 10 8 6 8 10 9 8 10 10 11 11 12 11 9 8 9
5 3 1 1 1 1 1 2 2 2 3 3 3 3 4 5 5 6 7 8 8 9 10 11 10 7 6 2 3 6 9 10 12 13 14 15 17 16 16 16 16 17 18 18 15 17 16 11 7 7 7 7 7 7 9 8 9 9 10 10 10 10 9 8 7 8 5 5 7 7 8 7 7 7 6 8 9 9 10 10 10 10 11 11 11 11 10
2 4 3 1 1 1 2 2 2 2 2 2 3 3 5 6 6 7 6 8 9 10 9 9 10 8 7 2 2 5 6 8 11 12 13 14 14 14 14 14 16 16 15 15 21 19 14 9 7 9 7 7 7 8 8 10 10 9 10 10 11 11 10 9 7 8 7 5 7 8 8 8 8 8 8 9 8 9 10 11 11 11 11 10 10 10 11
3 3 4 4 4 3 2 2 1 2 1 2 3 4 6 6 7 6 7 8 10 9 8 7 6 5 3 2 2 5 8 8 11 13 14 14 13 13 12 13 15 16 15 18 18 16 13 7 4 5 5 5 6 7 12 13 11 12 10 11 11 10 9 8 9 9 7 7 6 8 9 9 9 9 8 11 10 9 10 12 11 12 11 10 11 11 11
1 1 1 1 1 2 1 1 1 1 2 4 6 8 7 5 6 5 8 10 10 7 5 5 4 2 1 1 3 5 8 9 11 12 13 14 13 11 11 10 12 12 13 16 14 14 15 13 6 6 6 9 12 12 12 14 12 12 12 10 10 9 9 9 10 9 8 7 8 10 10 10 10 12 11 10 11 12 12 14 14 12 12 11 11 11 11
4 5 4 2 3 3 1 2 3 5 6 5 5 9 8 6 6 6 8 10 9 5 4 3 4 7 6 2 2 5 5 7 8 9 11 13 12 12 10 11 16 16 17 15 14 14 16 16 13 12 12 11 12 12 11 13 11 11 11 10 10 10 9 9 10 10 9 9 11 9 11 11 12 12 11 11 12 13 13 13 14 14 14 13 13 12 12
7 6 5 4 5 2 4 3 6 6 5 5 6 8 6 6 6 6 9 8 7 3 1 1 3 5 4 3 2 2 6 8 8 9 9 10 12 14 13 16 17 16 17 16 14 14 17 14 14 13 12 12 12 9 11 11 12 11 11 11 10 11 10 10 11 10 10 10 10 11 11 11 12 13 11 12 12 12 12 13 15 13 13 13 13 12 13
9 6 5 5 5 5 5 6 4 5 7 6 7 6 7 5 5 8 8 5 4 1 2 3 4 2 2 2 1 3 4 7 8 9 8 9 9 10 12 14 14 14 16 14 13 13 14 14 14 10 11 11 11 12 11 11 12 12 12 12 11 11 11 11 11 11 11 11 12 11 10 10 12 12 11 12 12 12 12 13 13 13 13 13 13 13 13
7 7 8 8 7 6 6 6 6 7 7 8 6 6 7 4 5 6 5 4 3 2 1 2 3 3 3 3 3 3 5 6 7 8 9 5 3 4 7 10 12 13 13 13 14 13 14 12 13 11 11 12 11 12 12 13 12 13 12 12 12 12 11 11 11 11 11 11 12 11 11 10 11 12 13 12 12 11 11 13 14 13 12 12 12 12 12
9 8 8 8 8 8 6 6 6 4 5 11 8 5 5 5 5 5 5 5 4 3 3 1 1 1 1 1 3 3 5 5 7 8 7 9 8 8 9 10 10 11 14 14 13 13 13 12 12 13 14 15 15 14 13 12 12 12 12 12 12 12 12 12 11 11 11 12 11 11 11 11 11 11 12 12 12 12 11 11 10 11 10 10 10 11 12
9 10 10 11 9 6 7 7 8 11 10 5 5 4 5 6 6 5 5 5 4 4 4 4 4 2 1 1 2 1 1 2 2 4 7 8 10 11 13 9 12 10 12 12 12 12 11 11 13 15 14 16 16 14 14 13 13 13 12 12 12 12 12 12 12 12 12 12 11 11 11 12 12 11 11 12 11 12 11 10 10 9 9 9 10 10 10
9 10 9 7 8 10 12 12 11 4 2 4 6 7 6 6 6 5 5 6 5 5 7 7 7 6 6 4 3 1 2 3 2 2 1 1 3 6 8 8 9 8 12 12 11 11 10 12 14 14 14 14 14 16 14 13 12 13 13 14 13 12 12 13 13 13 13 12 13 12 12 11 11 11 11 10 11 11 10 11 10 10 11 12 12 12 13
9 8 9 10 11 11 9 7 3 3 2 2 4 8 7 4 6 6 6 6 5 4 5 6 6 7 7 8 8 5 2 1 4 2 1 2 3 5 6 7 7 9 10 11 10 10 9 12 13 14 15 15 13 14 13 13 13 13 13 14 13 13 13 13 13 13 12 12 12 12 10 12 11 11 11 10 11 10 9 10 10 10 11 11 11 11 10
10 11 11 10 12 11 7 4 5 7 8 11 9 8 6 4 5 5 3 4 4 3 4 5 5 5 6 6 5 4 5 7 3 3 2 2 3 4 6 7 8 7 9 8 11 9 13 14 14 14 14 13 15 13 13 13 12 12 12 12 12 12 11 11 12 11 11 11 11 11 11 11 11 11 9 10 9 9 9 10 9 10 9 9 10 10 9
11 12 10 8 9 7 8 9 9 9 12 10 7 9 6 3 2 3 4 4 5 5 5 5 5 6 6 6 6 5 5 5 3 2 1 3 3 4 4 5 7 7 8 9 9 9 11 13 13 14 14 11 12 12 11 12 12 12 12 11 11 10 11 11 9 9 11 11 10 11 10 11 10 10 10 10 9 9 10 10 8 8 8 9 9 10 9
9 7 7 10 11 12 13 12 13 15 12 8 10 10 5 5 2 7 6 7 9 7 6 6 6 6 7 7 6 5 4 5 4 4 3 4 3 4 4 4 5 6 7 8 7 8 8 12 12 12 12 10 11 11 11 12 11 11 11 11 12 10 10 11 8 10 11 10 10 10 11 10 9 10 11 9 10 9 10 9 10 10 10 10 10 8 8
9 11 14 14 14 14 13 15 17 14 11 12 11 8 8 9 10 6 6 8 6 7 8 8 5 4 4 4 4 3 2 3 4 4 6 4 4 4 4 4 5 5 6 7 7 6 7 8 8 10 11 10 10 10 9 10 10 10 10 10 9 10 10 10 10 9 9 9 10 9 9 10 10 10 9 9 10 10 9 10 9 8 8 8 8 7 7
12 13 13 10 10 10 10 12 10 9 9 9 9 9 10 10 9 6 4 6 11 11 10 9 9 8 6 7 7 5 4 5 5 5 5 6 6 5 4 5 6 6 7 7 5 7 6 6 8 8 8 9 8 9 8 9 11 10 10 10 9 10 10 9 9 9 7 8 9 10 10 8 9 11 9 9 9 11 9 8 8 8 7 7 7 7 6
Wind_Speed
4 4 4 2 3 3 3 3 2 1 1 1 3 2 2 6 3 6 2 4 3 2 2 4 4 3 2 2 2 2 1 2 2 2 3 3 2 1 1 0 1 1 0 0 1 1 2 3 1 4 8 5 3 2 2 3 4 4 5 5 4 4 4 5 5 5 5 3 5 6 5 3 3 4 4 4 4 3 3 4 4 4 4 4 2 2 2
4 5 5 2 8 2 4 3 2 1 3 3 3 2 1 1 1 3 7 6 3 1 3 5 5 4 2 0 2 5 7 4 3 2 2 0 1 1 1 0 0 0 0 2 3 4 5 4 3 3 3 5 6 5 2 2 3 2 3 4 5 4 4 4 4 5 4 3 4 5 5 5 3 4 5 6 6 4 3 3 4 4 3 1 1 2 2
3 4 4 4 4 6 4 1 2 0 3 5 3 3 2 2 2 2 2 8 3 1 1 3 3 3 1 8 11 6 4 5 3 3 3 2 3 4 5 5 5 5 5 5 4 5 5 6 6 6 6 6 5 5 2 0 1 0 2 3 3 3 3 3 3 3 4 5 5 5 5 5 4 4 5 5 5 3 1 1 2 1 0 2 2 2 3
0 2 4 3 5 6 5 1 3 3 2 4 1 3 1 1 3 2 2 4 1 2 5 3 6 8 11 8 7 8 7 6 4 4 3 4 5 6 6 5 5 6 5 5 6 5 5 6 6 6 6 6 5 5 3 3 3 3 3 3 3 1 1 2 3 4 4 4 4 3 3 1 0 1 2 3 2 2 2 3 3 3 3 2 3 2 2
2 1 1 2 3 4 2 2 1 1 1 4 4 3 4 1 1 3 5 3 1 2 3 7 8 9 10 11 8 6 7 7 6 5 5 6 6 6 6 7 6 6 6 5 5 6 6 7 7 7 5 6 6 6 3 2 3 5 5 5 4 4 3 3 3 3 3 4 4 3 2 2 2 2 3 2 2 1 2 2 2 1 3 3 4 4 3
2 1 2 1 2 1 4 1 3 2 2 5 7 2 2 4 1 0 1 2 1 3 6 10 7 11 9 6 5 4 4 5 7 7 7 6 5 6 8 8 7 6 5 5 6 6 5 5 5 4 6 6 5 5 6 4 5 5 6 5 5 4 4 4 3 4 4 5 6 5 5 5 5 5 5 4 3 1 1 1 1 2 3 3 3 3 2
3 1 2 3 2 7 2 5 2 2 3 7 13 5 4 3 4 4 6 6 6 5 5 7 8 8 6 7 10 11 9 6 6 7 7 6 6 6 6 8 8 7 5 4 6 7 6 4 4 7 8 7 6 8 8 7 7 6 6 6 6 5 5 4 4 4 4 4 4 4 4 5 5 6 6 5 5 4 4 4 5 5 3 2 0 1 1
3 3 2 3 4 2 2 5 1 1 2 1 4 8 5 4 3 0 4 1 1 1 2 1 2 3 4 9 11 10 9 8 7 8 7 6 6 5 4 4 4 5 5 4 4 5 4 5 5 7 6 5 8 7 5 7 6 7 6 6 5 5 5 4 4 3 4 4 3 3 4 4 5 4 4 3 4 3 4 5 5 5 5 4 3 3 3
4 3 3 2 1 2 1 1 2 2 1 2 1 3 0 2 1 1 3 2 1 1 0 1 1 2 2 11 10 9 9 9 7 7 7 7 7 6 5 3 2 1 2 2 2 3 4 3 4 3 3 4 4 4 5 5 7 8 9 8 7 5 4 4 4 4 4 5 4 3 4 5 5 5 5 4 4 2 6 5 5 5 4 4 2 3 2
6 7 3 2 2 1 6 2 1 0 1 1 3 4 0 2 2 1 2 3 1 1 1 2 2 2 8 9 6 8 9 6 8 8 8 8 8 8 8 8 9 9 7 6 6 4 4 5 3 5 5 6 4 3 3 3 5 5 4 5 5 5 6 4 2 2 3 5 5 4 4 5 5 4 3 3 4 3 7 6 5 4 4 5 4 3 3
4 3 6 4 6 6 4 2 4 4 2 2 3 3 1 1 1 1 2 5 3 4 3 3 1 3 4 1 1 5 5 6 5 6 5 5 4 5 6 6 8 8 7 4 5 8 8 7 8 6 4 5 6 6 3 1 2 2 1 1 3 6 6 4 3 2 0 3 4 4 4 3 4 4 4 4 4 4 5 6 5 4 3 5 4 4 3
0 5 4 3 2 1 1 3 4 5 1 3 4 2 5 1 3 1 2 5 4 4 4 5 9 6 6 2 1 2 3 3 3 4 5 6 6 6 5 6 4 4 5 9 9 8 7 6 7 8 4 2 3 4 6 5 3 2 3 4 4 7 8 5 3 3 2 3 4 5 4 4 3 5 5 5 5 5 4 5 6 5 4 5 5 3 3
2 5 0 2 2 1 1 3 6 6 1 3 4 7 2 1 3 2 3 4 3 3 5 4 5 1 1 1 2 3 2 2 4 3 3 2 2 3 4 4 4 5 5 5 4 4 4 5 7 7 7 6 6 6 5 4 6 6 7 5 4 4 3 3 4 4 3 4 5 4 5 7 5 5 5 6 5 5 6 5 5 5 5 4 5 4 3
2 1 5 3 1 1 2 3 3 4 2 3 5 1 2 0 2 1 2 4 2 3 4 6 4 4 2 2 1 1 2 2 2 3 3 4 4 3 2 2 4 4 4 4 3 4 4 4 5 4 2 1 3 3 3 5 8 7 4 5 4 4 4 5 5 5 5 4 3 5 3 4 5 4 2 3 5 6 5 5 6 5 4 4 5 4 3
2 3 3 1 1 1 4 4 2 4 3 1 1 0 1 1 2 3 3 2 1 2 3 1 1 2 1 2 1 1 1 0 2 2 5 5 5 6 5 6 6 6 6 5 4 3 3 3 3 4 4 4 5 4 4 8 6 4 4 4 4 5 5 5 5 6 5 5 5 4 5 5 6 6 5 5 4 5 6 5 5 5 4 4 4 3 2
1 1 1 1 0 3 5 0 3 1 2 5 3 2 2 1 0 2 2 0 1 1 2 2 1 2 2 1 0 1 0 0 1 1 1 3 4 4 4 3 4 4 4 5 7 7 7 5 3 3 3 5 4 4 7 7 5 5 4 5 4 5 5 5 5 5 5 5 5 5 7 6 5 7 6 4 5 5 6 6 6 5 4 4 4 4 4
1 1 2 2 1 2 4 5 5 3 1 2 2 4 2 3 1 0 0 1 2 4 2 1 1 1 1 2 4 4 5 4 3 1 1 2 3 3 4 6 5 3 3 4 5 6 6 7 6 3 1 2 5 5 5 4 5 6 6 4 3 6 7 6 6 6 5 5 6 5 5 7 6 6 5 5 5 3 5 5 6 6 5 5 5 5 5
3 5 4 3 2 0 2 3 1 3 2 0 2 5 4 3 3 2 1 1 1 1 0 1 2 1 1 1 3 3 3 3 4 3 3 3 1 2 3 4 5 4 5 4 4 5 6 5 5 4 4 1 4 7 7 6 6 5 5 4 4 6 7 6 7 5 5 5 4 5 5 5 6 8 8 7 6 6 5 6 6 6 6 6 5 5 6
4 1 1 2 3 0 1 1 2 2 1 0 1 2 1 1 1 1 1 1 0 0 0 0 1 3 3 3 4 3 3 4 4 4 3 3 3 3 4 4 4 5 4 5 5 5 5 5 5 5 5 5 5 6 7 8 7 6 5 4 5 4 4 5 3 4 7 7 6 5 5 5 4 5 5 6 6 6 6 6 5 4 5 6 5 5 5
3 2 4 2 0 1 1 1 1 2 1 1 1 0 0 1 1 1 0 0 1 1 1 2 2 4 3 3 5 4 4 4 5 6 5 5 5 4 3 4 3 4 4 4 4 5 6 7 6 6 7 7 7 6 7 7 7 6 6 5 5 5 4 3 3 2 4 4 5 6 6 6 6 4 4 6 7 7 8 7 6 6 6 6 6 7 7
1 2 2 1 0 1 1 2 3 2 1 0 1 2 2 2 2 2 3 0 2 1 3 1 1 3 4 2 3 3 3 4 4 4 4 4 4 4 6 5 4 4 4 5 5 5 6 4 4 5 6 7 7 8 7 7 6 6 8 7 6 6 5 3 5 3 4 5 5 6 6 5 4 2 5 7 7 6 3 3 6 8 8 7 7 7 6
1 3 2 4 1 1 2 3 4 3 3 1 0 1 1 2 2 3 3 5 2 1 2 3 2 2 3 3 3 3 3 3 4 4 4 4 4 5 4 4 4 5 4 5 6 6 6 5 4 4 5 6 6 6 6 6 6 6 7 8 7 8 7 6 6 5 5 6 6 6 6 6 5 1 3 1 2 3 3 1 3 2 5 7 6 6 6
1 5 4 3 2 1 5 3 2 3 2 2 0 1 2 3 3 3 2 4 6 3 3 3 3 2 2 2 1 2 3 4 3 4 4 6 6 6 5 5 6 5 6 6 6 7 7 5 5 5 5 5 6 7 5 5 6 7 6 7 7 8 7 7 7 7 6 6 6 6 6 5 4 5 2 1 3 3 1 3 3 4 5 6 5 8 8
1 3 3 5 3 2 1 1 3 2 1 2 2 3 3 4 4 3 3 3 3 1 1 2 1 1 1 1 1 4 4 4 4 6 5 5 5 6 4 4 6 7 7 6 6 8 6 6 6 5 5 6 5 6 5 5 5 6 6 6 7 8 7 7 7 6 6 5 4 5 5 4 5 5 5 5 4 2 3 3 2 5 7 8 8 9 11
0 1 4 5 4 2 1 1 1 1 1 1 1 3 2 3 3 2 2 1 1 3 2 0 1 0 1 3 2 3 4 4 5 6 7 7 7 6 6 6 7 7 8 7 7 7 7 7 7 6 5 6 5 5 4 4 5 7 7 6 7 8 8 8 6 5 4 5 5 5 6 5 4 4 5 6 6 6 3 4 5 4 2 6 8 10 11
1 2 2 2 1 0 2 0 1 2 3 1 1 1 2 1 2 3 3 4 3 2 2 1 0 1 1 2 3 3 3 5 6 7 6 7 7 7 7 8 8 7 8 8 8 8 8 7 7 6 6 6 5 6 4 4 5 6 7 7 8 7 7 6 6 5 5 5 5 5 5 5 5 5 5 5 6 5 5 6 4 4 6 7 3 9 9
1 2 3 1 2 2 2 0 1 1 3 1 1 1 1 1 3 3 2 2 2 2 1 2 3 2 2 1 2 2 3 5 5 6 6 8 9 8 8 8 8 9 9 9 9 9 10 10 9 8 9 7 5 6 5 5 5 6 6 7 7 7 7 5 5 7 5 4 4 4 4 4 4 5 5 5 5 5 6 6 5 4 2 4 5 2 4
1 1 0 1 2 1 0 1 1 1 1 0 1 2 1 1 2 2 1 1 1 0 2 2 2 2 3 2 2 5 4 5 6 7 8 9 9 8 8 9 9 9 9 10 10 10 9 9 9 9 9 6 6 5 5 5 5 6 6 6 6 6 2 2 4 4 5 4 4 4 4 4 4 5 5 5 5 5 5 4 4 4 3 2 2 4 8
1 2 1 0 0 1 1 1 1 2 1 1 0 1 1 1 0 1 0 0 1 2 3 4 1 1 2 3 2 4 5 6 7 9 9 9 9 9 8 9 9 10 10 10 10 10 9 9 9 9 9 6 5 5 5 5 5 5 5 5 6 2 1 2 3 3 1 3 3 3 2 3 3 4 4 4 4 4 4 5 4 4 5 4 5 6 7
1 1 1 2 1 2 2 0 0 1 1 0 0 1 1 1 0 1 2 3 2 3 4 3 3 4 2 3 4 3 5 7 8 8 9 9 9 8 9 9 11 11 11 11 11 10 9 10 10 11 9 6 6 6 6 5 5 4 6 6 5 4 4 2 2 2 3 3 3 4 3 4 3 4 4 4 5 5 5 5 5 5 5 4 3 6 7
1 1 3 1 2 1 1 1 1 0 0 1 2 2 1 1 0 1 3 3 3 3 4 4 4 5 5 5 5 4 5 6 7 9 11 10 9 9 9 9 9 9 11 12 12 11 11 11 11 11 9 7 6 6 6 5 5 5 6 5 4 4 5 3 3 4 4 4 4 4 4 3 4 4 4 4 5 5 5 4 5 5 4 5 5 5 4
1 1 4 1 0 1 2 1 2 0 1 1 1 2 3 1 2 3 3 3 4 3 4 6 6 7 7 6 5 5 5 6 7 8 8 8 8 8 8 9 10 11 13 13 12 11 11 11 12 11 8 7 6 5 5 4 5 5 6 4 3 3 5 7 4 4 5 4 4 4 4 5 4 4 5 5 5 5 5 6 6 5 5 5 5 5 4
2 2 3 2 1 1 2 1 1 0 1 2 4 2 2 2 1 1 2 3 4 5 4 6 7 6 6 5 5 5 5 7 7 7 7 8 9 9 9 8 9 10 11 10 11 11 11 11 11 10 8 7 6 5 4 5 5 5 4 4 4 4 5 5 5 5 4 5 5 5 4 5 5 5 5 5 5 5 5 6 6 6 6 6 6 4 4
4 3 4 3 3 3 2 3 2 0 2 3 1 2 2 1 1 2 3 3 4 6 6 7 6 5 5 5 4 3 5 6 7 8 9 10 10 9 9 9 9 10 11 11 11 9 8 9 10 8 7 6 6 5 4 4 4 5 5 5 5 5 5 4 5 5 5 5 4 4 5 5 6 6 6 6 6 6 6 6 6 7 7 6 5 3 4
2 2 2 2 2 2 1 1 1 2 3 3 1 2 1 1 2 3 3 3 5 5 6 6 6 4 4 4 2 3 4 6 7 8 9 10 11 11 10 10 10 10 10 9 7 6 7 8 8 6 6 5 5 4 4 5 5 5 5 5 6 6 5 5 5 5 5 5 4 5 5 6 5 4 6 6 5 5 5 6 6 6 7 6 5 5 5
3 2 1 1 1 1 0 1 1 1 1 2 2 1 2 3 3 4 4 5 5 6 6 6 6 4 4 2 1 3 5 6 7 8 9 10 10 9 10 10 10 11 11 11 9 10 10 6 3 5 4 4 4 4 4 4 5 5 5 6 6 6 5 4 4 4 3 4 4 4 5 5 5 4 4 5 5 5 6 6 5 5 6 6 5 5 4
1 2 1 1 1 1 1 1 1 1 1 1 1 2 3 4 4 4 4 5 6 6 6 5 5 4 4 1 1 2 3 5 5 6 7 8 8 9 9 8 10 10 9 8 11 11 8 5 4 6 4 4 4 4 5 6 5 5 6 6 6 6 6 5 4 4 4 3 4 5 5 4 4 4 5 5 5 5 5 6 6 6 6 5 5 5 5
2 2 2 2 2 2 1 0 1 1 0 1 1 2 3 4 4 4 4 5 6 6 4 4 3 3 1 1 1 3 4 5 6 8 9 9 8 8 7 7 8 8 7 8 10 8 7 4 1 2 3 3 3 3 6 9 8 7 6 6 6 6 5 5 5 4 4 4 4 5 5 5 5 5 4 5 5 5 6 6 6 6 6 5 5 6 5
1 0 0 0 0 1 0 0 0 0 1 2 4 4 4 3 4 3 5 5 6 4 3 3 3 1 1 0 1 3 4 5 7 8 8 9 8 7 6 6 6 7 7 9 8 7 7 8 3 2 2 4 6 7 8 10 10 7 7 6 6 5 5 5 6 5 4 4 5 5 5 5 5 6 5 5 5 6 6 6 6 6 5 5 5 6 6
3 3 3 2 1 1 1 1 1 3 3 3 3 5 5 4 4 4 5 6 5 3 2 2 3 5 4 2 1 3 3 4 5 6 7 7 7 7 6 5 9 9 10 11 9 7 10 12 8 7 6 6 7 7 7 9 8 6 6 6 6 5 5 5 6 6 5 5 6 6 6 5 6 6 6 5 5 6 7 7 7 7 6 6 7 6 6
4 4 3 3 3 1 2 2 3 3 3 3 4 5 4 4 3 4 6 5 4 2 0 1 2 3 3 2 1 1 3 5 5 4 5 6 7 7 7 8 9 9 10 8 7 8 10 9 7 7 7 7 7 6 6 8 7 6 6 6 6 6 6 6 6 5 5 5 6 6 6 6 6 6 6 5 6 5 5 7 7 7 6 6 6 6 6
5 4 3 3 3 3 3 3 2 3 4 4 4 4 5 4 3 5 5 4 2 1 1 2 3 1 1 1 0 2 3 4 5 5 5 5 5 5 6 7 8 7 11 10 9 8 8 8 8 6 6 6 6 9 8 6 7 6 6 6 6 6 6 6 6 6 5 6 6 5 5 5 5 5 6 6 5 5 6 6 6 6 6 6 6 6 6
4 4 5 5 4 4 4 3 3 4 4 5 4 4 4 3 3 4 3 2 2 1 1 1 1 2 2 2 2 2 3 4 5 5 5 3 2 2 3 5 6 7 10 7 7 6 7 6 6 5 7 7 7 9 9 7 7 7 7 7 7 7 6 6 6 6 6 5 5 5 5 5 4 4 6 5 5 5 6 6 7 6 6 6 6 6 6
5 5 4 4 5 5 4 4 3 2 3 6 5 3 3 3 3 3 3 3 3 2 2 1 0 0 0 1 2 2 3 3 4 5 4 5 4 4 5 5 6 7 11 7 7 7 6 6 6 8 11 11 12 11 8 7 7 7 7 7 6 6 6 6 6 6 5 5 5 5 5 6 5 5 5 5 5 5 5 5 5 5 5 5 5 5 6
6 6 6 6 6 4 4 4 5 7 6 3 3 3 3 3 4 3 3 3 3 2 2 3 2 2 1 1 1 0 1 1 1 3 4 5 5 6 7 6 7 6 8 9 7 6 6 6 8 11 10 12 12 11 8 7 7 7 7 7 6 6 6 6 6 6 6 6 6 5 5 5 5 5 5 5 6 5 5 5 5 5 4 4 5 5 5
6 6 6 5 5 6 7 7 6 2 1 2 4 4 4 4 4 3 3 4 3 3 4 4 4 4 3 3 2 1 1 1 1 0 0 0 1 4 5 5 5 5 8 9 6 6 6 9 11 10 11 11 11 9 7 7 6 7 7 7 7 6 6 6 6 7 6 6 6 5 5 5 5 5 5 4 4 5 5 6 5 5 5 6 6 6 6
5 5 5 6 6 6 5 4 2 2 1 1 3 5 4 3 4 4 4 4 3 3 3 3 4 4 4 5 5 3 1 1 2 1 1 1 2 2 4 5 6 7 7 6 6 5 5 7 8 11 11 11 10 7 6 6 6 6 7 7 7 7 7 7 7 7 6 6 6 7 6 6 6 5 5 5 5 5 4 5 4 4 5 6 6 5 5
6 6 7 6 7 7 4 3 3 4 5 7 5 5 4 2 3 3 2 2 3 2 3 3 3 3 4 4 3 2 3 4 1 1 1 2 2 3 3 4 4 5 6 6 7 7 10 10 11 11 11 10 8 7 7 6 6 6 5 6 5 5 5 6 6 5 6 6 6 6 5 6 5 5 4 5 4 4 4 5 4 5 4 4 4 5 5
6 7 6 5 5 4 5 5 5 6 7 6 4 5 3 2 1 2 3 3 3 3 4 3 3 4 4 4 4 4 3 3 2 0 0 2 2 2 2 3 5 6 5 5 6 5 8 10 10 10 10 8 7 6 6 6 7 7 6 6 5 5 6 5 5 4 6 6 6 6 6 6 6 6 5 5 5 4 5 5 4 4 4 4 4 5 4
4 3 4 6 6 6 7 6 7 8 7 5 6 6 3 3 1 4 4 4 5 4 4 4 4 4 4 5 4 3 3 3 3 2 1 2 2 2 2 3 3 5 5 5 5 5 6 9 9 9 8 5 6 6 6 6 6 6 6 6 7 5 6 7 6 7 6 6 6 6 6 5 4 6 6 4 4 4 4 4 5 6 8 5 5 4 4
5 6 7 8 8 7 7 8 9 8 6 7 7 5 5 6 6 4 4 5 4 4 5 4 3 3 3 3 3 2 2 2 3 3 4 3 2 3 3 3 3 3 4 5 4 3 3 4 4 6 6 5 5 6 5 6 5 6 5 5 5 6 6 6 6 4 5 5 5 5 5 5 5 6 4 5 5 5 5 6 5 4 4 4 4 3 3
7 7 7 5 6 6 6 6 6 5 5 6 6 5 6 6 6 4 3 5 6 6 6 5 5 5 4 4 5 4 3 3 3 4 4 4 4 3 3 4 4 4 4 4 3 5 4 4 5 6 6 5 4 5 5 6 6 5 5 6 5 5 6 6 6 5 4 4 5 5 6 4 4 5 5 4 5 6 5 4 4 4 4 3 4 3 3
Wind_Direction
8 19 48 74 62 73 150 155 143 111 334 88 105 203 172 138 140 209 226 153 154 274 283 310 288 283 284 323 347 314 279 72 33 55 88 110 117 93 86 22 8 25 5 351 351 47 105 107 75 104 119 109 93 89 118 134 133 142 141 126 124 121 118 132 144 133 155 145 92 125 138 123 119 140 155 156 155 141 138 140 157 184 193 197 198 205 202
43 25 21 5 104 68 49 8 312 332 88 80 104 97 109 195 263 217 147 120 119 271 302 318 299 292 235 19 20 24 28 355 17 59 39 55 148 129 128 114 75 56 27 20 10 13 0 5 16 26 52 122 126 124 146 150 144 164 124 118 118 116 128 146 156 146 149 121 121 119 128 142 169 161 165 173 172 180 202 191 202 198 207 191 182 221 237
15 350 29 45 94 126 122 282 340 46 146 83 69 106 15 84 41 57 130 109 64 347 296 322 327 6 111 50 35 22 6 5 25 80 69 48 35 28 23 12 14 12 16 17 23 25 13 19 6 5 356 357 59 83 87 136 124 80 107 116 114 140 174 180 167 145 139 145 145 146 172 157 162 158 146 156 157 166 187 183 203 194 53 340 301 256 251
348 358 30 54 85 81 99 8 5 26 90 113 344 78 288 159 172 139 95 83 73 337 357 12 38 51 56 57 33 27 12 8 23 68 69 81 64 48 38 34 34 34 30 25 33 24 21 20 20 22 3 4 12 55 60 62 43 47 74 95 105 91 152 144 166 165 153 143 125 107 100 78 47 34 54 66 58 47 15 326 330 12 351 294 284 281 296
228 254 41 55 68 53 13 279 318 67 35 121 103 71 54 42 290 126 162 202 226 263 309 68 37 55 54 49 29 17 22 27 45 56 66 69 73 72 64 54 46 39 36 37 49 43 36 24 26 13 19 28 16 351 22 33 64 79 84 90 99 82 52 67 79 97 110 101 96 96 92 89 94 88 90 76 68 82 265 306 28 4 314 339 321 334 343
227 262 357 10 73 168 227 251 261 184 168 180 110 42 355 335 91 169 180 168 138 79 68 85 77 64 54 60 45 49 44 36 51 60 65 66 64 69 69 66 56 38 36 35 44 57 54 48 49 50 49 44 10 8 358 360 58 60 79 57 62 57 54 59 71 92 106 114 119 132 131 120 111 108 108 122 139 134 86 53 56 35 22 1 339 331 310
177 321 47 83 199 232 263 320 336 202 130 109 108 117 77 18 21 64 80 78 90 102 103 101 99 100 94 67 56 43 30 37 54 62 61 56 66 72 71 68 59 52 48 39 49 39 30 31 42 52 45 42 43 35 18 16 17 53 64 70 52 47 46 20 25 35 50 64 79 69 69 80 88 95 108 113 102 92 99 101 104 118 130 150 96 11 18
67 70 78 143 245 240 299 299 328 40 110 112 68 56 17 28 27 99 83 77 87 139 119 114 129 105 100 72 51 39 29 36 42 50 42 32 25 34 26 53 82 86 78 53 44 46 15 22 42 51 47 43 54 45 44 40 27 24 29 61 63 64 62 54 60 53 68 70 67 66 64 67 88 94 87 96 107 75 76 66 63 74 56 43 35 37 19
162 176 124 204 345 341 266 337 31 45 40 17 85 143 303 347 328 89 127 76 39 36 324 313 320 330 60 61 31 18 21 15 29 49 45 40 27 17 9 7 339 321 315 338 46 51 27 353 39 30 17 32 54 56 51 45 34 26 22 19 13 14 58 75 87 101 109 97 91 95 104 104 112 128 130 116 102 96 94 88 97 93 105 98 83 95 81
120 128 70 19 26 247 249 226 256 297 189 227 178 105 330 322 329 183 149 104 59 35 342 346 330 28 60 44 2 350 356 9 20 29 38 35 30 24 20 20 20 17 14 7 356 23 3 334 334 21 15 11 19 35 22 39 55 57 33 355 356 2 346 350 12 78 111 122 123 128 124 132 143 141 119 108 126 155 131 128 108 123 124 99 75 77 106
88 76 134 191 165 242 205 280 298 313 310 141 145 75 242 265 289 18 114 101 70 70 43 342 7 64 74 105 330 323 343 354 19 36 30 39 44 43 40 34 25 16 13 18 20 20 17 5 340 351 9 360 355 333 306 267 116 74 351 295 40 343 327 306 303 312 86 113 122 122 124 147 140 132 134 127 114 104 115 117 124 143 121 105 77 42 25
206 147 118 198 192 165 324 279 297 313 353 167 73 99 259 249 357 56 82 83 71 43 37 64 63 91 120 135 301 295 320 321 350 42 26 19 18 22 21 28 24 27 23 32 26 22 12 342 330 339 349 17 338 299 300 330 331 235 230 232 194 210 220 224 220 216 206 146 135 130 136 148 148 139 140 126 131 112 96 110 122 112 104 102 98 57 21
68 90 172 22 327 293 316 330 314 317 244 107 125 203 226 305 29 28 67 68 63 76 57 52 96 50 148 184 248 289 301 20 22 19 18 354 355 12 8 8 9 31 30 55 32 352 335 335 337 343 348 348 315 298 304 313 285 252 244 248 243 236 242 240 224 227 219 184 164 179 165 157 155 146 149 139 133 121 119 103 97 84 80 86 85 60 34
34 138 107 172 216 235 352 282 312 279 95 168 216 228 228 100 67 1 31 75 30 64 93 113 125 165 227 259 273 297 331 22 326 358 351 3 5 8 360 359 25 22 15 25 28 5 335 329 303 304 304 291 270 289 301 278 259 260 262 260 264 254 232 227 230 219 212 223 206 172 166 135 135 138 118 124 140 136 131 124 109 103 106 99 100 79 36
48 36 77 65 175 312 3 297 353 17 104 247 160 181 25 113 100 82 27 35 344 90 37 360 121 167 251 256 263 278 299 19 18 4 4 347 351 346 353 353 357 8 359 353 347 320 302 299 302 317 343 342 332 328 306 269 281 299 276 262 243 220 214 218 220 221 220 200 190 175 170 174 150 161 164 141 135 131 129 117 113 121 121 122 113 102 76
137 58 101 184 198 269 305 126 144 307 121 145 187 104 55 14 148 122 129 286 242 150 129 183 254 249 270 314 274 307 121 101 346 336 324 321 330 330 328 312 316 1 343 330 328 326 324 327 342 339 342 321 316 321 294 291 300 294 280 249 245 248 224 211 210 214 216 216 208 189 178 169 158 149 164 159 147 152 148 141 140 134 151 142 131 147 155
116 191 156 198 234 317 345 46 84 94 98 113 160 92 102 90 49 156 137 199 207 191 202 179 206 317 303 299 330 349 320 332 330 329 296 264 285 299 312 313 324 335 324 305 309 310 309 316 321 330 318 300 305 302 288 311 305 302 291 280 245 242 240 222 205 211 207 205 202 202 190 165 155 160 151 159 150 166 146 146 150 156 177 176 177 182 174
93 43 80 127 153 236 30 34 16 131 139 321 124 153 164 216 228 198 182 273 259 314 351 358 332 260 301 326 311 296 287 297 294 303 322 325 305 293 308 316 327 326 325 320 316 308 308 304 307 311 315 274 291 285 301 309 303 304 292 275 261 249 245 224 214 192 190 209 209 202 191 195 181 174 170 177 175 170 178 175 172 166 172 181 187 182 195
65 141 142 132 167 107 14 22 21 8 44 132 167 133 154 193 239 262 247 230 228 200 129 217 268 292 282 292 284 280 290 294 291 304 313 311 320 317 322 308 324 326 323 315 305 300 297 297 304 304 312 302 271 284 297 304 308 307 310 288 270 260 265 286 277 203 187 195 205 203 196 201 196 183 175 166 160 162 179 174 173 170 164 180 185 193 200
101 218 204 213 230 265 280 215 175 126 87 68 73 161 184 224 242 202 263 189 279 170 256 236 211 251 273 268 278 301 301 302 320 325 332 334 339 333 324 315 327 325 320 300 290 286 282 286 302 310 312 305 303 306 302 307 314 317 304 290 277 279 265 241 225 240 249 231 201 198 208 191 194 197 196 177 169 173 178 181 172 196 186 189 195 196 204
318 331 325 316 354 302 295 317 273 238 208 133 8 3 8 27 17 336 328 218 242 184 235 316 253 276 284 300 283 288 304 324 326 324 321 322 317 316 329 326 332 318 308 303 299 299 290 289 295 303 301 302 310 313 312 315 322 317 299 290 282 278 280 287 271 243 228 215 210 207 212 220 227 198 194 191 199 216 240 188 190 183 191 204 207 205 183
342 173 195 136 116 297 283 269 229 226 241 188 32 1 10 348 342 325 339 315 321 297 319 320 293 265 314 351 16 341 320 312 307 311 310 306 303 302 294 296 300 301 296 297 293 286 283 286 292 293 297 302 306 311 319 326 330 315 299 292 285 272 263 250 252 243 239 239 233 229 221 215 213 236 41 111 196 202 243 218 200 204 175 198 202 183 181
219 247 226 187 144 198 225 200 211 223 197 154 125 237 242 267 258 252 265 279 302 12 17 37 94 85 67 347 28 351 324 302 285 281 292 304 304 298 300 304 302 297 294 292 289 282 278 277 274 278 285 293 303 310 322 325 330 316 304 291 278 270 268 256 242 234 231 234 230 219 218 209 200 198 216 345 45 49 214 260 252 247 230 227 192 180 184
248 228 211 176 150 200 253 251 236 261 203 140 232 274 258 251 270 285 257 256 241 265 35 13 79 121 51 309 355 322 307 297 304 302 295 286 282 289 290 282 290 295 292 289 283 284 284 277 273 275 278 283 288 297 310 317 324 315 303 281 271 266 260 255 254 249 241 239 219 196 201 177 175 179 185 216 282 310 32 45 269 242 241 234 225 206 204
268 210 177 187 189 232 301 302 316 309 355 131 215 262 294 300 293 238 173 140 168 144 133 83 320 290 314 313 298 301 297 298 296 295 299 299 298 299 297 298 294 291 291 286 283 280 276 269 268 267 272 278 286 289 296 307 315 314 308 290 270 266 260 259 253 242 221 201 206 193 181 172 180 176 181 197 219 257 306 360 39 44 329 249 234 220 207
164 111 104 113 120 37 350 72 52 23 360 352 294 328 324 241 165 127 151 150 165 174 152 194 244 278 230 272 291 290 299 300 308 313 308 302 300 298 297 293 292 291 286 286 283 282 276 266 259 261 264 269 277 283 289 297 305 304 302 295 275 266 263 252 239 224 217 202 192 193 179 174 176 180 201 200 213 218 248 281 323 359 19 7 283 218 209
108 117 116 12 351 320 5 347 256 310 322 323 212 206 217 76 119 134 163 175 182 186 189 200 213 249 270 267 301 309 302 303 309 306 301 295 292 292 293 291 288 287 288 287 284 279 278 277 272 265 264 261 257 271 278 287 296 297 299 296 289 275 267 247 223 224 198 179 184 169 163 176 183 193 206 208 202 202 207 221 230 240 303 343 358 135 164
82 8 96 190 253 244 280 212 226 267 256 285 189 158 153 140 119 119 103 14 349 290 290 261 289 318 309 322 10 323 324 317 310 303 303 298 297 295 291 288 287 288 289 287 282 279 276 274 272 270 266 260 254 260 268 270 270 278 287 288 272 253 237 291 283 241 178 177 170 170 185 206 201 202 199 185 192 203 201 194 169 145 84 25 30 47 93
328 33 13 138 203 217 192 130 54 26 338 341 10 214 156 112 145 119 92 210 252 293 298 303 288 246 276 304 339 313 305 300 304 305 304 300 297 296 295 292 289 288 284 280 277 275 274 271 268 265 263 253 246 252 254 247 244 261 276 272 269 256 184 197 182 257 105 112 131 158 166 168 166 176 181 187 177 163 160 155 146 139 125 136 108 78 65
244 358 71 82 76 128 119 65 311 331 324 308 333 265 214 138 22 286 250 264 268 296 290 298 313 309 308 304 293 274 284 290 294 299 301 299 296 294 288 287 289 287 285 284 283 278 274 272 269 266 264 248 224 224 228 235 245 249 261 260 244 215 230 166 102 135 113 116 124 127 130 143 156 161 168 169 165 163 153 149 146 140 139 126 119 124 124
140 38 59 48 78 97 165 211 248 61 263 240 219 252 323 124 158 256 276 283 308 305 307 312 302 296 290 271 262 261 266 275 289 301 303 300 294 290 289 289 290 290 291 286 286 279 274 271 269 266 263 257 222 213 216 232 240 246 257 249 234 187 191 163 146 154 147 127 126 119 121 122 142 143 149 145 144 140 138 133 130 125 120 119 115 111 110
93 41 13 339 268 222 297 260 230 190 214 212 284 255 238 236 288 278 292 309 295 291 302 306 298 288 283 281 276 272 279 290 300 297 293 290 291 292 289 286 281 279 283 285 280 274 270 267 265 261 258 256 247 227 214 217 228 243 244 217 183 145 147 148 143 149 137 135 129 126 135 127 123 122 120 131 139 140 135 128 122 116 115 111 109 110 125
146 290 321 312 339 302 278 256 152 261 160 240 240 241 232 216 216 280 283 290 307 303 293 283 280 282 289 291 283 286 302 305 299 294 299 302 301 299 297 294 289 287 284 280 276 273 266 259 258 260 254 248 234 223 208 207 220 230 216 175 158 141 135 146 145 127 112 113 126 137 133 119 120 107 106 108 107 112 115 117 115 110 104 99 96 100 112
184 208 225 217 187 205 215 242 195 184 235 252 272 259 233 269 260 277 291 292 284 284 279 278 284 294 296 293 290 303 314 320 325 322 316 308 308 309 307 301 297 293 290 286 279 270 260 252 252 251 240 227 222 218 206 207 222 217 183 160 143 133 121 125 126 123 120 123 135 133 123 114 103 100 97 91 90 94 100 103 102 102 97 87 80 70 80
189 221 217 219 205 199 190 204 205 213 209 234 265 296 308 294 293 277 275 279 275 267 282 294 296 300 303 304 314 318 326 320 312 313 314 314 309 310 309 306 304 309 308 303 289 281 276 268 252 238 214 206 202 198 205 214 215 187 168 151 138 127 127 124 119 125 126 128 118 102 92 85 78 87 101 103 104 109 106 103 102 100 98 95 85 75 75
139 131 136 118 65 59 127 203 221 202 195 197 212 252 278 279 287 291 283 275 275 286 290 295 304 319 317 299 314 331 325 324 321 316 311 308 308 306 307 309 320 325 331 336 346 339 328 313 254 188 164 158 161 196 208 223 180 159 143 132 121 113 110 106 102 87 70 90 86 82 78 77 74 69 85 107 109 105 103 100 100 99 104 108 114 105 97
173 159 179 131 127 170 187 198 201 177 184 195 249 281 284 280 263 265 271 283 286 289 294 302 314 328 321 261 244 315 322 323 315 314 309 309 310 314 312 328 341 337 327 333 337 333 334 356 68 121 115 147 177 209 208 174 141 131 120 114 110 110 102 90 78 82 72 68 91 91 91 87 82 84 84 85 91 97 100 100 95 90 85 91 98 104 103
192 157 169 175 194 165 197 217 174 155 121 347 284 240 247 270 286 295 294 290 291 294 302 299 283 278 267 197 3 344 335 326 332 329 326 321 321 321 332 349 336 335 338 339 323 328 341 4 69 125 143 164 190 162 135 129 119 115 105 104 101 102 104 103 94 84 81 72 75 82 85 90 90 72 64 91 95 83 82 79 74 80 89 85 85 89 89
122 95 95 149 136 164 126 359 52 156 176 232 269 290 274 254 269 288 293 296 295 303 308 305 304 353 68 35 3 352 340 336 335 330 328 329 333 340 326 337 343 337 320 320 331 348 355 7 32 45 91 101 101 101 103 94 87 87 90 91 97 98 97 93 95 92 86 87 86 86 85 84 84 90 85 71 78 88 86 90 95 93 84 91 88 88 90
185 180 202 165 198 230 203 278 283 265 244 222 232 262 277 298 300 306 302 304 303 327 306 297 353 358 351 11 34 349 331 325 325 329 336 334 337 337 329 355 3 351 347 347 351 355 8 22 35 41 44 60 68 72 69 82 87 87 90 92 92 89 86 88 88 84 76 76 81 84 85 83 85 86 86 86 83 84 94 93 92 97 99 93 91 90 91
195 194 197 180 215 195 216 237 259 258 259 257 239 248 256 254 276 305 296 292 299 332 14 57 35 359 356 322 232 315 327 323 327 333 335 342 0 355 356 358 349 349 349 349 356 6 18 25 27 39 39 47 55 70 78 76 81 86 88 90 93 91 88 83 84 85 82 80 78 82 86 90 85 77 76 74 78 79 87 94 92 90 95 95 93 92 91
212 198 188 197 214 217 229 233 253 297 282 255 250 249 253 235 227 255 271 283 297 310 78 54 83 68 336 350 352 342 340 333 335 339 345 360 351 337 354 352 341 343 342 348 6 16 21 22 19 27 33 57 62 72 79 78 79 79 81 76 78 79 83 84 85 84 84 86 85 79 77 81 89 91 90 88 83 81 85 84 85 86 86 88 90 93 97
199 196 204 210 218 223 225 229 226 241 266 279 265 257 259 254 244 258 258 265 258 217 99 73 50 45 44 34 32 16 336 334 341 338 335 332 338 25 354 303 325 340 349 8 15 27 24 24 29 31 46 57 65 65 68 70 73 73 73 73 75 77 79 78 84 85 84 85 82 85 86 82 84 92 94 88 85 80 82 85 89 88 85 86 90 92 92
199 203 208 209 221 223 215 221 237 246 264 272 261 250 255 260 248 232 212 223 230 199 171 151 105 79 51 60 58 21 347 349 346 338 335 337 343 11 16 349 333 345 5 15 17 25 23 26 28 47 53 62 65 68 66 67 70 73 74 75 76 76 79 78 74 76 76 76 75 72 79 85 84 82 86 87 86 84 79 82 84 85 87 85 85 90 93
199 203 206 213 219 211 213 216 214 226 228 248 293 281 253 252 248 218 191 205 215 201 184 186 179 180 166 125 125 78 287 292 296 340 13 358 3 348 347 348 354 4 8 18 20 18 22 26 43 52 61 61 65 65 67 64 68 70 73 76 76 78 76 79 79 78 79 79 77 77 76 80 82 83 84 86 90 86 88 89 88 87 89 89 87 87 89
205 210 212 213 221 223 223 218 227 211 224 282 299 290 261 233 231 207 197 203 198 204 196 190 185 190 176 176 201 269 310 309 295 291 210 253 269 294 319 348 358 9 22 25 17 13 21 32 45 51 58 64 68 67 67 69 71 75 77 80 81 79 82 85 84 86 85 87 90 88 89 87 84 82 85 89 92 95 95 93 87 84 86 87 86 85 85
200 202 206 209 223 230 235 238 210 189 198 220 263 276 279 236 216 207 206 214 215 195 175 179 191 195 183 173 169 158 152 16 340 310 304 319 325 344 358 10 19 23 31 29 22 17 20 36 45 51 58 61 66 71 69 72 72 78 77 81 74 78 76 77 78 81 78 77 79 80 78 82 86 90 91 90 88 87 88 86 80 84 86 83 82 79 74
194 205 208 204 216 227 225 209 193 216 216 219 218 227 247 236 238 245 203 181 215 183 163 179 189 195 193 190 193 181 159 143 83 327 334 28 23 27 32 35 28 39 39 37 34 25 33 48 51 53 55 59 61 64 66 70 72 67 65 62 59 63 71 76 74 77 79 78 79 80 80 79 78 77 76 81 81 83 82 86 86 84 76 69 75 76 76
205 211 209 198 204 212 211 214 219 229 233 225 207 232 223 183 206 250 235 194 183 193 194 193 190 203 210 206 192 197 189 172 152 227 274 101 60 54 13 31 40 42 45 45 40 32 34 46 50 52 55 56 60 63 69 71 73 75 74 75 75 74 76 75 76 77 80 77 78 78 78 80 80 81 80 77 75 73 76 71 68 70 75 78 71 69 69
213 195 198 200 203 207 209 210 221 227 226 208 216 221 183 137 162 254 226 204 207 201 198 206 206 203 201 209 206 199 193 194 199 216 170 103 101 76 48 52 49 54 54 57 48 36 31 44 49 50 53 56 57 61 67 71 73 75 80 77 78 77 77 82 79 76 80 84 80 83 83 84 82 80 82 81 78 79 78 85 85 84 84 80 82 77 74
198 202 217 213 211 213 205 207 220 216 208 210 216 199 173 174 199 209 187 189 172 187 213 223 235 219 199 203 193 170 151 132 143 150 122 112 111 90 79 75 63 62 58 58 55 47 44 51 51 55 56 59 61 61 63 73 76 74 73 79 79 82 80 78 81 81 76 83 87 84 85 87 87 83 81 89 91 90 85 85 82 78 79 87 86 90 86
210 215 225 220 210 206 206 220 232 229 219 211 198 187 195 197 194 198 191 183 181 195 195 186 229 238 190 186 173 157 145 148 145 121 129 135 119 106 85 87 82 68 68 67 55 53 53 60 62 63 66 66 65 67 68 67 71 77 75 77 76 73 74 80 86 88 79 78 86 87 76 78 88 91 89 88 92 93 91 90 90 88 89 88 90 88 88